Regional Weather Roundup
Issued by NWS

Home | Current Version | Previous Version | Graphics & Text | Print | Product List | Glossary On
Versions: 1 2 3 4 5 6 7 8 9 10 11 12 13 14 15 16 17 18 19 20 21 22 23 24 25 26 27 28 29 30 31 32 33 34 35 36 37 38 39 40 41 42 43 44 45 46 47 48 49 50
103
ASUS45 KSLC 160410
RWRUT

UTAH REGIONAL WEATHER ROUNDUP
NATIONAL WEATHER SERVICE SALT LAKE CITY UT
900 PM MST MON JAN 15 2018

UTZ001>011-023>025-160500-

NORTHERN UTAH

CITY           SKY/WX    TMP DP  RH WIND       PRES   REMARKS
BRIGHAM CITY   CLEAR     36  28  73 CALM      30.33R
HILL AFB       PTCLDY    39  24  55 E9        30.30S WCI  33
LOGAN          PTCLDY    32  25  75 NE3       30.34R
OGDEN          CLEAR     33  28  81 CALM      30.30S
SALT LAKE CITY PTCLDY    36  31  82 NE3       30.31R
TOOELE VALLEY  PTCLDY    30  28  93 SE5       30.32S WCI  25
WENDOVER       MOCLDY    33  24  69 CALM      30.31R
HEBER CITY       N/A     34  27  75 CALM      30.33R
WEST JORDAN    PTCLDY    33  30  90 N3        30.32R

$$

UTZ011>015-024>027-160500-

CENTRAL/NORTHEAST UTAH

CITY           SKY/WX    TMP DP  RH WIND       PRES   REMARKS
PROVO AIRPORT  PTCLDY    31  28  89 CALM      30.32S
MOAB/CANYONLAN PTCLDY    39  23  52 NE15      30.32R WCI  31
DELTA          MOCLDY    32  28  86 NW5       30.30R WCI  27
PRICE          PTCLDY    35  23  61 N14       30.33R WCI  26
ROOSEVELT      CLOUDY    36  21  55 E5        30.44R WCI  32
VERNAL         CLOUDY    33  16  49 E7        30.43R WCI  27

$$

UTZ013>016-019>022-027-160500-

SOUTHERN UTAH

CITY           SKY/WX    TMP DP  RH WIND       PRES   REMARKS
BRYCE CANYON   CLEAR     25  22  88 W5        30.30R WCI  19
CEDAR CITY     PTCLDY    32  27  81 S6        30.26R WCI  26
MILFORD        PTCLDY    32  26  78 N3        30.27R
ST GEORGE      PTCLDY    49  37  63 CALM      30.20R
HANKSVILLE     MOCLDY    34  23  64 CALM      30.34R
BLANDING         N/A     34  22  62 W5        30.32R WCI  30

$$

REGIONAL REPORTS     COLORADO/ARIZONA

CITY           SKY/WX    TMP DP  RH WIND       PRES   REMARKS
CRAIG, CO      CLEAR     12   1  61 CALM      30.42R
GRAND JUNCTION PTCLDY    33  21  61 N8        30.34R WCI  26
RIFLE, CO      PTCLDY    31  15  52 NW3       30.37R
MONTROSE, CO   CLEAR     27  20  75 SE7       30.35R WCI  19
CORTEZ, CO     PTCLDY    32  22  66 NE7       30.24R WCI  26
COLORADO CITY    N/A     34  32  93 CALM      30.25R
PAGE, AZ       PTCLDY    41  31  67 SW3       30.24R
GRAND CANYON   CLEAR     30  24  78 CALM      30.26R
KINGMAN, AZ    CLEAR     50  33  52 NE5       30.17S
FLAGSTAFF, AZ  PTCLDY    28  20  71 CALM      30.27R

$$

REGIONAL REPORTS    NEVADA/IDAHO/WYOMING

CITY           SKY/WX    TMP DP  RH WIND       PRES   REMARKS
LAS VEGAS, NV  MOCLDY    58  41  53 SW5       30.14R
ELY, NY        PTCLDY    27  20  75 S8        30.28R WCI  19
ELKO, NV       PTCLDY    35  29  78 E3        30.23F
POCATELLO, ID  CLEAR     27  24  89 CALM      30.33R
BURLEY, ID     PTCLDY    36  27  69 NE10G22   30.28S WCI  28
FORT BRIDGER,  CLOUDY    24  17  76 E7        30.41S WCI  16
EVANSTON, WY   CLEAR     24  18  77 E13       30.35S WCI  12
ROCK SPRINGS,  PTCLDY    14   6  70 E5        30.42R WCI   6

$$




USA.gov is the U.S. government's official web portal to all federal, state and local government web resources and services.